Flag for China Weather past 2 weeks in Changchun, Jilin, China

Now
77 °F

Clear.


Feels Like: 79 °F
Forecast: 69 / 84 °F
Wind: 10 mph from Southwest

Location: Changchun Airport

Current Time: Aug 4, 2015 at 1:34:32 AM

Latest Report: Aug 4, 2015 at 1:00 AM


Visibility: 10 mi

Pressure: 29.53 "Hg

Humidity: 74%

Dew point: 68 °F

Location of ChangchunLocation

Historic Weather in Changchun — Graph

°F

Changchun temperature yesterday

Maximum temperature yesterday: 90 °F (at 2:00 PM)
Minimum temperature yesterday: 72 °F (at 5:00 AM)
Average temperature yesterday: 80 °F

Past Weeks' High & Low Weather Summary

 TemperatureHumidityPressure
High90 °F (Jul 20, 12:00 PM)94% (Jul 21, 8:00 PM)29.86 "Hg (Jul 21, 8:00 PM)
Low64 °F (Jul 28, 4:00 AM)29% (Jul 27, 1:00 PM)29.50 "Hg (Aug 3, 4:00 PM)
Average77 °F68%29.69 "Hg
* Reported Midnight between Jul 19 and Jul 20 — Midnight between Aug 3 and Aug 4, Changchun, Weather by CustomWeather, © 2015

Note: Actual official high and low records may vary slightly from our data, if they occured in-between our weather recording intervals... More about our weather records

Advertising

Changchun weather history for previous 24 hours

 ConditionsComfort  
Time TempWeatherWind HumidityBarometerVisibility
12:00 AM
Tue, Aug 4
77 °FClear.8 mph74%29.53 "Hg10 mi
11:00 PM
Mon, Aug 3
77 °FClear.8 mph74%29.53 "Hg10 mi
10:00 PM81 °FClear.10 mph62%29.53 "Hg10 mi
9:00 PM81 °FClear.10 mph54%29.53 "Hg10 mi
8:00 PM81 °FClear.8 mph58%29.53 "Hg10 mi
7:00 PM81 °FSunny.8 mph58%29.50 "Hg10 mi
6:00 PM84 °FSunny.8 mph48%29.50 "Hg10 mi
5:00 PM86 °FSunny.8 mph40%29.53 "Hg10 mi
4:00 PM88 °FPassing clouds.15 mph38%29.50 "HgN/A
3:00 PM88 °FScattered clouds.13 mph40%29.53 "HgN/A
2:00 PM90 °FScattered clouds.17 mph36%29.53 "HgN/A
1:00 PM88 °FScattered clouds.13 mph33%29.53 "HgN/A
12:00 PM88 °FPassing clouds.13 mph46%29.56 "HgN/A
11:00 AM84 °FPassing clouds.13 mph58%29.59 "HgN/A
10:00 AM82 °FPassing clouds.10 mph66%29.59 "HgN/A
9:00 AM81 °FPassing clouds.10 mph66%29.59 "Hg4 mi
8:00 AM79 °FPassing clouds.8 mph70%29.59 "Hg4 mi
7:00 AM75 °FFog.15 mph78%29.59 "Hg2 mi
6:00 AM73 °FFog.10 mph89%29.59 "Hg1 mi
5:00 AM72 °FFog.3 mph88%29.59 "Hg1 mi
4:00 AM73 °FFog.8 mph89%29.59 "Hg1 mi
3:00 AM73 °FPassing clouds.8 mph83%29.59 "Hg4 mi
2:00 AM73 °FPassing clouds.15 mph83%29.59 "HgN/A
1:00 AM73 °FPassing clouds.10 mph78%29.59 "HgN/A
Weather by CustomWeather, © 2015

See weather overviewHow to use our weather pages